CCA1954 ZBAA-ZSJN

Flight info

Callsign CCA1954
Flight time N/A
Altitude 25600
Route ELKUR2G ELKUR W40 DOXAB/K0717S0750 W40 PANKI PANKI6W
Aircraft A320/M-SDE3FGHIRWY/LB1

Departure

Time 2026-05-04 14:32
Airport Beijing Capital International Airport (ZBAA)

Arrival

Time N/A
Airport Jinan Yaoqiang International Airport (ZSJN)
Time Latitude Longitude Altitude Speed Heading
2026-05-04 14:08 40.05522 116.59472 124 ft 0 kts 263°
2026-05-04 14:19 40.05526 116.59507 124 ft 2 kts 263°
2026-05-04 14:19 40.05528 116.59527 124 ft 2 kts 263°
2026-05-04 14:19 40.05529 116.59546 124 ft 2 kts 263°
2026-05-04 14:19 40.05529 116.59566 124 ft 2 kts 299°
2026-05-04 14:20 40.05518 116.59579 124 ft 2 kts 335°
2026-05-04 14:20 40.05511 116.59583 124 ft 1 kts 356°
2026-05-04 14:20 40.05505 116.59583 124 ft 0 kts 353°
2026-05-04 14:23 40.05527 116.59580 124 ft 5 kts 353°
2026-05-04 14:23 40.05576 116.59572 124 ft 9 kts 353°
2026-05-04 14:24 40.05653 116.59560 124 ft 12 kts 354°
2026-05-04 14:24 40.05701 116.59608 124 ft 10 kts 59°
2026-05-04 14:24 40.05779 116.59636 124 ft 13 kts 353°
2026-05-04 14:24 40.05886 116.59618 124 ft 17 kts 354°
2026-05-04 14:25 40.06014 116.59599 124 ft 19 kts 352°
2026-05-04 14:25 40.06316 116.59551 124 ft 23 kts 353°
2026-05-04 14:25 40.06488 116.59525 124 ft 25 kts 353°
2026-05-04 14:26 40.06670 116.59496 124 ft 27 kts 353°
2026-05-04 14:26 40.06857 116.59467 124 ft 27 kts 353°
2026-05-04 14:26 40.07048 116.59438 124 ft 28 kts 354°
2026-05-04 14:26 40.07249 116.59406 124 ft 27 kts 352°
2026-05-04 14:27 40.07375 116.59357 124 ft 10 kts
2026-05-04 14:27 40.07422 116.59424 124 ft 11 kts 14°
2026-05-04 14:27 40.07510 116.59413 124 ft 14 kts 353°
2026-05-04 14:27 40.07623 116.59397 124 ft 17 kts 354°
2026-05-04 14:28 40.07750 116.59374 124 ft 19 kts 353°
2026-05-04 14:28 40.07895 116.59354 124 ft 22 kts 354°
2026-05-04 14:28 40.08051 116.59328 124 ft 23 kts 354°
2026-05-04 14:28 40.08218 116.59302 124 ft 25 kts 353°
2026-05-04 14:29 40.08523 116.59256 124 ft 14 kts 354°
2026-05-04 14:29 40.08588 116.59385 124 ft 3 kts 83°
2026-05-04 14:30 40.08588 116.59390 124 ft 0 kts 83°
2026-05-04 14:30 40.08590 116.59408 124 ft 3 kts 83°
2026-05-04 14:30 40.08595 116.59530 124 ft 8 kts 114°
2026-05-04 14:31 40.08543 116.59545 124 ft 6 kts 175°
2026-05-04 14:31 40.08502 116.59550 124 ft 21 kts 174°
2026-05-04 14:32 40.07254 116.59748 124 ft 150 kts 173°
2026-05-04 14:32 40.06130 116.59923 458 ft 169 kts 173°
2026-05-04 14:32 40.04889 116.60109 801 ft 192 kts 172°
2026-05-04 14:32 40.03478 116.60334 1122 ft 215 kts 172°
2026-05-04 14:33 40.01869 116.60588 1378 ft 244 kts 173°
2026-05-04 14:33 40.00136 116.60860 1676 ft 253 kts 173°
2026-05-04 14:33 39.98377 116.61137 1971 ft 254 kts 172°
2026-05-04 14:33 39.96626 116.61407 2299 ft 258 kts 172°
2026-05-04 14:34 39.94802 116.61696 3135 ft 262 kts 172°
2026-05-04 14:34 39.93047 116.61968 4219 ft 254 kts 172°
2026-05-04 14:34 39.91304 116.62244 5082 ft 255 kts 173°
2026-05-04 14:34 39.89540 116.62518 5881 ft 258 kts 174°
2026-05-04 14:35 39.87749 116.62804 6704 ft 260 kts 175°
2026-05-04 14:35 39.85956 116.63086 7479 ft 263 kts 177°
2026-05-04 14:35 39.84123 116.63366 8264 ft 266 kts 177°
2026-05-04 14:35 39.82280 116.63641 8968 ft 270 kts 177°
2026-05-04 14:36 39.80402 116.63928 9641 ft 276 kts 177°
2026-05-04 14:36 39.78464 116.64223 10307 ft 282 kts 177°
2026-05-04 14:36 39.76437 116.64516 10706 ft 298 kts 176°
2026-05-04 14:36 39.74318 116.64839 11035 ft 315 kts 176°
2026-05-04 14:37 39.72066 116.65183 11395 ft 329 kts 176°
2026-05-04 14:37 39.69757 116.65541 11934 ft 336 kts 176°
2026-05-04 14:37 39.67413 116.65900 12513 ft 341 kts 176°
2026-05-04 14:37 39.65051 116.66342 13059 ft 348 kts 172°
2026-05-04 14:38 39.62621 116.66956 13619 ft 353 kts 171°
2026-05-04 14:38 39.60210 116.67587 14149 ft 358 kts 171°
2026-05-04 14:38 39.57730 116.68236 14668 ft 363 kts 171°
2026-05-04 14:38 39.55227 116.69035 15218 ft 369 kts 164°
2026-05-04 14:39 39.52819 116.70231 15828 ft 373 kts 156°
2026-05-04 14:39 39.50514 116.71774 16437 ft 376 kts 152°
2026-05-04 14:39 39.48201 116.73441 17023 ft 379 kts 152°
2026-05-04 14:40 39.43527 116.76827 18167 ft 384 kts 152°
2026-05-04 14:40 39.41180 116.78513 18707 ft 386 kts 152°
2026-05-04 14:40 39.38829 116.80192 19211 ft 389 kts 152°
2026-05-04 14:40 39.36462 116.81883 19704 ft 391 kts 152°
2026-05-04 14:41 39.34036 116.83499 20185 ft 394 kts 155°
2026-05-04 14:41 39.31492 116.84924 20684 ft 396 kts 159°
2026-05-04 14:41 39.26334 116.87524 21637 ft 401 kts 159°
2026-05-04 14:42 39.21077 116.90179 22509 ft 406 kts 159°
2026-05-04 14:42 39.18423 116.91522 22929 ft 409 kts 159°
2026-05-04 14:42 39.15757 116.92842 23378 ft 411 kts 162°
2026-05-04 14:43 39.12931 116.93475 23859 ft 409 kts 182°
2026-05-04 14:43 39.10138 116.92888 24354 ft 406 kts 200°
2026-05-04 14:43 39.07542 116.91475 24804 ft 405 kts 206°
2026-05-04 14:43 39.04960 116.89942 25159 ft 409 kts 206°
2026-05-04 14:44 39.02396 116.88425 25462 ft 412 kts 206°
2026-05-04 14:44 38.99748 116.86875 25502 ft 413 kts 206°
2026-05-04 14:44 38.97147 116.85371 25508 ft 414 kts 206°
2026-05-04 14:44 38.94481 116.83841 25510 ft 415 kts 206°
2026-05-04 14:45 38.91822 116.82319 25515 ft 420 kts 206°
2026-05-04 14:45 38.89091 116.80757 25514 ft 433 kts 206°
2026-05-04 14:45 38.86306 116.79166 25515 ft 444 kts 206°
2026-05-04 14:45 38.83434 116.77528 25514 ft 454 kts 206°
2026-05-04 14:46 38.80513 116.75869 25511 ft 464 kts 205°
2026-05-04 14:46 38.77539 116.74184 25509 ft 473 kts 205°
2026-05-04 14:46 38.74486 116.72456 25503 ft 481 kts 205°
2026-05-04 14:46 38.71389 116.70706 25502 ft 487 kts 205°
2026-05-04 14:47 38.68253 116.68946 25500 ft 492 kts 204°
2026-05-04 14:47 38.65047 116.67474 25501 ft 495 kts 198°
2026-05-04 14:47 38.61679 116.66408 25512 ft 495 kts 192°
2026-05-04 14:47 38.58284 116.65792 25517 ft 496 kts 187°
2026-05-04 14:48 38.54845 116.65380 25518 ft 497 kts 186°
2026-05-04 14:48 38.51386 116.65004 25516 ft 497 kts 186°
2026-05-04 14:48 38.47963 116.64633 25507 ft 497 kts 186°
2026-05-04 14:48 38.44506 116.64253 25497 ft 493 kts 186°
2026-05-04 14:49 38.41129 116.63874 25245 ft 479 kts 186°
2026-05-04 14:49 38.37844 116.63502 24999 ft 462 kts 186°
2026-05-04 14:49 38.34695 116.63143 24753 ft 446 kts 186°
2026-05-04 14:49 38.31646 116.62820 24499 ft 433 kts 183°
2026-05-04 14:50 38.28653 116.62950 24243 ft 421 kts 174°
2026-05-04 14:50 38.25793 116.63648 23987 ft 410 kts 165°
2026-05-04 14:50 38.23075 116.64636 23669 ft 401 kts 163°
2026-05-04 14:50 38.20433 116.65659 23269 ft 396 kts 163°
2026-05-04 14:51 38.17825 116.66664 22761 ft 393 kts 163°
2026-05-04 14:51 38.15169 116.67669 22232 ft 391 kts 163°
2026-05-04 14:51 38.12606 116.68626 21821 ft 386 kts 163°
2026-05-04 14:51 38.10036 116.69584 21388 ft 380 kts 163°